Main page
METAR-TAF:

METAR-TAF

Airports :

Pembrey Airport

Pembrey, Wales

latitude: 51-43N, longitude: 004-22W, elevation: 3 m

Current weather observation

The report was made 42 minutes ago, at 12:50 UTC
Wind 19 kt from the South
Temperature 10°C
Humidity 93%
Pressure 1014 hPa
Visibility: 7000 m

METAR: EGOP 171250Z AUTO 19019KT 7000 // BKN050/// 10/09 Q1014

Time: 13:32 (13:32 UTC)


TAF: missing

Weather observations and forecasts of more than 4000 airports (METAR and TAF reports).

The available stations are represented by yellow and red dots on the map.

Hover mouse over dot to see the name of the station.

Then click to see weather observations and forecasts.

To change the map : click on the green buttons with a black cross to zoom in, on the green button with a dash to zoom out, or on the green arrows for adjacent maps.


METAR-TAF: